This is the latest recevied weather packets stored in our database for station/object KO6LQJ. If no packets are shown the sender has not sent any weather packets the latest 10 day(s).
| Time | Temp. | Humidity | Pressure | Rain* | Wind** | Luminosity | Snow |
|---|---|---|---|---|---|---|---|
| 1778017221 | 19.44° C | 44% | 1016.3 hPa | 0 mm | - | 144 W/m² | - |
| 1778016920 | 19.44° C | 42% | 1016.3 hPa | 0 mm | - | 149 W/m² | - |
| 1778016615 | 19.44° C | 44% | 1016.3 hPa | 0 mm | - | 308 W/m² | - |
| 1778016312 | 19.44° C | 45% | 1016.3 hPa | 0 mm | - | 206 W/m² | - |
| 1778016009 | 19.44° C | 45% | 1016.2 hPa | 0 mm | - | 180 W/m² | - |
| 1778015706 | 20° C | 43% | 1016.1 hPa | 0 mm | - | 167 W/m² | - |
| 1778015403 | 20° C | 43% | 1016.2 hPa | 0 mm | - | 236 W/m² | - |
| 1778015099 | 19.44° C | 43% | 1016.2 hPa | 0 mm | - | 229 W/m² | - |
| 1778014796 | 20° C | 43% | 1016.3 hPa | 0 mm | - | 263 W/m² | - |
| 1778014495 | 20° C | 43% | 1016.2 hPa | 0 mm | - | 268 W/m² | - |
| 1778014191 | 20.56° C | 43% | 1016.1 hPa | 0 mm | - | 276 W/m² | - |
| 1778013889 | 20.56° C | 43% | 1016.1 hPa | 0 mm | - | 322 W/m² | - |
| 1778013586 | 20.56° C | 43% | 1016.1 hPa | 0 mm | - | 581 W/m² | - |
| 1778013283 | 20.56° C | 44% | 1015.9 hPa | 0 mm | - | 279 W/m² | - |
| 1778012979 | 20.56° C | 45% | 1016 hPa | 0 mm | - | 794 W/m² | - |
| 1778012675 | 20.56° C | 45% | 1016.1 hPa | 0 mm | - | 315 W/m² | - |
| 1778012372 | 20.56° C | 46% | 1016.1 hPa | 0 mm | - | 333 W/m² | - |
| 1778012069 | 20° C | 46% | 1016.2 hPa | 0 mm | - | 337 W/m² | - |
| 1778011767 | 20.56° C | 46% | 1016 hPa | 0 mm | - | 289 W/m² | - |
| 1778011464 | 20.56° C | 47% | 1015.9 hPa | 0 mm | - | 371 W/m² | - |
| 1778011159 | 20.56° C | 46% | 1016 hPa | 0 mm | - | 310 W/m² | - |
| 1778010857 | 20.56° C | 47% | 1016 hPa | 0 mm | - | 393 W/m² | - |
| 1778010554 | 20.56° C | 47% | 1016.4 hPa | 0 mm | - | 346 W/m² | - |
| 1778010252 | 20° C | 47% | 1016.4 hPa | 0 mm | - | 336 W/m² | - |
| 1778009951 | 19.44° C | 50% | 1016.5 hPa | 0 mm | - | 420 W/m² | - |
* Rain latest hour (hover to see other rain measurements)
** Current wind speed in m/s (hover to see current wind gust speed)